User: anonymous   Login
Location: �chenoz-la-M�line
(47.6009°N, 6.1354°E)
Time: 13:32:27
(UTC+00:00)
Language:

Cosmos 841 Rocket - Orbit

View from above orbital plane
View from above orbital plane
View from above satellite
View from above satellite

Ground track
Ground track

The orbit data is extracted from the following two-line orbital elements,

1 09023U 76069B   21104.23056587  .00000013  00000-0  12567-4 0  9995
2 09023  74.0453  38.1231 0018435 220.9030 139.0743 14.39678073345573
Epoch (UTC): 14 April 2021 05:32:00
Eccentricity: 0.0018435
inclination: 74.0453°
perigee height: 746 km
apogee height: 773 km
right ascension of ascending node: 38.1231°
argument of perigee: 220.9030°
revolutions per day: 14.39678073
mean anomaly at epoch: 139.0743°
orbit number at epoch: 34557

The dashed part of the orbit path shows where the satellite is in the earth's shadow,  

DLR